#timestamp,LO_Frequency,Hit,StdDev 
1541552415.1,286047002.4,N
1541552435.9,286047002.1,N
1541552455.7,286047004.4,N
1541552475.6,286047002.5,N
1541552495.4,286047002.2,N
1541552515.2,286047000.2,N
1541552535.1,286047000.7,N
1541552536.0,286047000.7,N
1541552555.8,286046998.6,N
1541552575.6,286046998.2,N
1541552595.5,286047001.2,N
1541552615.3,286046998.7,N
1541552635.2,286047000.8,N
1541552655.9,286046998.9,N
1541552675.7,286046999.1,N
1541552695.6,286046999.4,N
1541552715.4,286046997.1,N
1541552735.2,286046997.5,N
1541552755.1,286046999.6,N
1541552756.0,286046999.6,N
1541552775.8,286046998.5,N
1541552795.7,286046998.3,N
1541552815.5,286046999.0,N
1541552835.3,286046996.6,N
1541552855.2,286046996.6,N
1541552875.0,286046997.0,N
1541552875.9,286046997.0,N
1541552895.8,286046996.7,N
1541552915.6,286046996.5,N
1541552935.4,286046996.9,N
1541552955.3,286046996.5,N
1541552975.1,286046999.0,N
1541552995.8,286046999.6,N
1541553015.7,286046999.2,N
1541553035.5,286046999.5,N
1541553055.4,286047000.9,N
1541553075.2,286046999.8,N
1541553095.0,286047000.4,N
1541553095.9,286047000.4,N
1541553115.8,286047001.2,N
1541553135.6,286046998.6,N
1541553155.5,286046999.2,N
1541553175.3,286046998.3,N
1541553195.1,286047000.9,N
1541553215.9,286046998.6,N
1541553235.7,286046998.3,N
1541553255.5,286046998.5,N
1541553275.4,286047000.6,N
1541553295.2,286046998.2,N
1541553315.1,286047000.5,N
1541553316.0,286047000.5,N
1541553335.8,286047000.6,N
1541553355.6,286046998.1,N
1541553375.5,286046999.2,N
1541553395.3,286046998.5,N
1541553415.1,286046998.3,N
1541553435.9,286046999.4,N
1541553455.7,286046997.1,N
1541553475.6,286046997.4,N
1541553495.4,286046997.6,N
1541553515.2,286046997.3,N
1541553535.1,286046995.0,Y
1541553536.0,286046995.0,P
1541553555.8,286046994.9,N
1541553575.7,286046995.4,N
1541553595.5,286046995.6,N
1541553615.3,286046995.3,N
1541553635.2,286046997.6,N
1541553655.0,286046995.3,Y
1541553655.9,286046995.3,P
1541553675.7,286047000.3,N
1541553695.6,286046998.1,N
1541553715.4,286047000.9,N
1541553735.3,286047000.9,N
1541553755.1,286047000.5,N
1541553775.8,286046998.5,N
1541553795.7,286046999.9,N
1541553815.5,286047001.0,N
1541553835.4,286047000.1,N
1541553855.2,286047002.0,N
1541553875.0,286047002.7,N
1541553875.9,286047002.7,N
1541553895.8,286047002.0,N
1541553915.6,286047001.7,N
1541553935.4,286047001.9,N
1541553955.3,286047001.7,N
1541553975.1,286047004.0,N
1541553995.9,286047003.1,N
1541554015.7,286047004.3,N
1541554035.5,286047003.7,N
1541554055.4,286047001.8,N
1541554075.2,286047004.4,N
1541554095.1,286047003.9,N
1541554096.0,286047003.9,N
1541554115.8,286047004.2,N
1541554135.6,286047003.1,N
1541554155.5,286047005.6,N
1541554175.3,286047003.5,N
1541554195.2,286047003.9,N
1541554215.9,286047003.4,N
1541554235.7,286047003.4,N
1541554255.6,286047002.9,N
1541554275.4,286047003.8,N
1541554295.2,286047003.4,N
1541554315.1,286047004.2,N
1541554316.0,286047004.2,N
1541554335.8,286047003.5,N
1541554355.7,286047006.0,Y
1541554375.5,286047002.7,P
1541554395.3,286047002.2,P
1541554415.2,286047001.5,P
1541554435.0,286047004.0,Y
1541554435.9,286047004.0,P
1541554455.8,286047002.1,N
1541554475.6,286047001.5,N
1541554495.4,286047001.5,N
1541554515.3,286047002.7,N
1541554535.1,286047000.6,N
1541554555.8,286046998.5,N
1541554575.7,286047001.1,N
1541554595.5,286047001.0,N
1541554615.4,286047000.7,N
1541554635.2,286046998.2,N
1541554655.0,286047000.6,N
1541554655.9,286047000.6,N
1541554675.8,286047000.5,N
1541554695.6,286047000.6,N
1541554715.4,286047002.8,N
1541554735.3,286047000.1,N
1541554755.1,286047001.0,N
1541554775.8,286047000.7,N
1541554795.7,286047000.3,N
1541554815.5,286047000.3,N
1541554835.4,286047000.5,N
1541554855.2,286047002.4,N
1541554875.0,286047002.8,N
1541554875.9,286047002.8,N
1541554895.8,286047002.7,N
1541554915.6,286047002.0,N
1541554935.4,286046999.7,N
1541554955.3,286047000.2,N
1541554975.1,286047002.7,N
1541554995.9,286047002.6,N
1541555015.7,286047002.5,N
1541555035.5,286047000.0,N
1541555055.4,286047000.9,N
1541555075.2,286047002.7,N
1541555095.0,286047000.0,N
1541555095.9,286047000.0,N
1541555115.8,286047000.3,N
1541555135.6,286047002.8,N
1541555155.5,286047000.4,N
1541555175.3,286047002.3,N
1541555195.1,286047001.6,N
1541555215.9,286047001.8,N
1541555235.7,286047001.9,N
1541555255.5,286047002.6,N
1541555275.4,286047001.6,N
1541555295.2,286047002.3,N
1541555315.1,286047002.5,N
1541555316.0,286047002.5,N
1541555335.8,286047001.7,N
1541555355.6,286047002.3,N
1541555375.5,286047002.7,N
1541555395.3,286047002.2,N
1541555415.1,286047002.0,N
1541555435.9,286047001.8,N
1541555455.7,286047002.1,N
1541555475.6,286047001.8,N
1541555495.4,286047002.1,N
1541555515.2,286047002.0,N
1541555535.1,286047002.4,N
1541555536.0,286047002.4,N
1541555555.8,286047002.5,N
1541555575.6,286047002.5,N
1541555595.5,286047002.3,N
1541555615.3,286046999.7,N
1541555635.2,286046999.7,N
1541555655.9,286047001.6,N
1541555675.7,286047002.5,Y
1541555695.6,286047000.7,P
1541555715.4,286047000.3,N
1541555735.2,286047000.6,N
1541555755.1,286047001.0,N
1541555756.0,286047001.0,N
1541555775.8,286047002.8,Y
1541555795.7,286046998.2,P
1541555815.5,286047001.0,N
1541555835.3,286046998.2,N
1541555855.2,286046998.2,N
1541555875.0,286047000.5,N
1541555875.9,286047000.5,N
1541555895.8,286046998.5,N
1541555915.6,286047000.9,N
1541555935.4,286046999.8,N
1541555955.3,286047002.2,N
1541555975.1,286047002.8,N
1541555976.0,286047002.8,N
1541555995.8,286047000.1,N
